Погода в Саумалколе

Казахстан     53°17′40″N   68°06′14″E
темп.,
°C
ветер,
м/с
пор.,
м/с
влажн.,
%
обл.,
%
осадки,
мм/ч
давл.,
гПа
погр.,
м
25 февраля, чт
чт2500:00−28ююв239892 0.0 100919
03:00−31юз1110049 0.0 101019
06:00−31сз3310064 0.0 101221
09:00−29з379991 0.1 1016140
12:00−21сз799396 0.1 1019764
15:00−22зсз7993100 0.1 1023638
18:00−25зсз61095100 0.2 1026470
21:00−29з49100100 0.0 1030141
26 февраля, пт
пт2600:00−31зюз47100100 0.0 1032112
03:00−32юз4699100 0.0 103390
06:00−32юз479894 0.0 1034103
09:00−32юз469890 0.0 1035118
12:00−27юз469695 0.0 1035238
15:00−24ююз579251 0.0 1035294
18:00−25ююз489326 0.0 1035230
21:00−29ююз48960 0.0 1035119
27 февраля, сб
сб2700:00−29ю49960 0.0 1034143
03:00−29ю510960 0.0 1033167
06:00−29ю510950 0.0 1033167
09:00−28ю510950 0.0 1031178
12:00−21ю611920 0.0 1029267
15:00−16ю7129140 0.0 1026365
18:00−14ю8158769 0.0 1023528
21:00−10ю91691100 0.4 1017854
28 февраля, вс
вс2800:00−10ю101791100 1.1 1014865
03:00−9ю101791100 0.8 1010871
06:00−7ю91788100 1.0 1006682
09:00−5ююз8159194 0.1 1004469
12:00−1ююз7119396 0.1 1003628
15:000юз6996100 0.1 1003681
18:00−1юз61188100 0.4 1003665
21:00−3юз5129298 0.3 1004467
1 марта, пн
пн100:00−4юз4109696 0.4 1004325
03:00−4юз5109697 0.2 1005326
06:00−3юз6119598 0.8 1006492
09:00−6зюз6109499 0.4 1007476
12:00−7зюз689499 0.8 1010518
15:00−11зсз5693100 0.3 1013416
18:00−15зсз4695100 0.4 1015328
21:00−21зсз34100100 0.0 101958